Regional Weather Roundup
Issued by NWS Glasgow, MT

Home | Current Version | Previous Version | Text Only | Print | Product List | Glossary On
Versions: 1 2 3 4 5 6 7 8 9 10 11 12 13 14 15 16 17 18 19 20 21 22 23 24 25 26 27 28 29 30 31 32 33 34 35 36 37 38 39 40 41 42 43 44 45 46 47 48 49 50
000
ASUS45 KGGW 260215
RWRGGW
HOURLY WEATHER ROUNDUP FOR NORTHEAST MONTANA
NATIONAL WEATHER SERVICE GLASGOW MONTANA
700 PM MST SUN JAN 25 2015

NOTE: "FAIR" INDICATES FEW OR NO CLOUDS BELOW 12,000 FEET WITH NO
SIGNIFICANT WEATHER AND/OR OBSTRUCTIONS TO VISISBILITY.

NORTHEAST MONTANA


CITY           SKY/WX    TMP DP  RH WIND       PRES   REMARKS
GLASGOW        CLEAR     41  34  76 W7        29.89R
PLENTYWOOD       N/A     38  33  82 NW6         N/A
WOLF POINT     CLEAR     39  33  79 W6        29.87R
JORDAN           N/A     40  33  76 W3        29.92R
WINNETT          N/A     54  29  38 NW5G13      N/A
SIDNEY         CLEAR     37  34  87 SE9       29.85S
GLENDIVE       CLEAR     41  36  81 W10       29.90R
MALTA            N/A     40  34  79 SW8         N/A

FORT PECK REPORTS


CITY           SKY/WX    TMP DP  RH WIND       PRES   REMARKS
FORT PECK        N/A     42  35  76 SW7         N/A
THE PINES        N/A     48  36  63 S3          N/A

SOUTHEAST MONTANA


CITY           SKY/WX    TMP DP  RH WIND       PRES   REMARKS
BILLINGS       CLOUDY    55  29  36 SW17G24   30.04R
MILES CITY     PTCLDY    42  34  73 NW6       29.94R
BAKER          PTCLDY    41  34  76 W15       29.92R
LIVINGSTON     MOCLDY    56  25  30 SW26G36   30.17R

CENTRAL MONTANA


CITY           SKY/WX    TMP DP  RH WIND       PRES   REMARKS
HAVRE          MOCLDY    46  34  62 SW10      29.94R
LEWISTOWN      CLOUDY    45  30  55 SW23      30.04R
GREAT FALLS    CLOUDY    52  31  44 SW21      30.06S
CUT BANK       CLOUDY    47  31  53 W22       30.02R
HELENA         MOCLDY    47  31  53 CALM      30.20R
BUTTE          CLEAR     43  26  51 E3        30.30R
BOZEMAN        CLOUDY    36  30  79 VRB5      30.24R

WESTERN MONTANA


CITY           SKY/WX    TMP DP  RH WIND       PRES   REMARKS
MISSOULA       CLEAR     38  33  82 NE3       30.23R
KALISPELL      NOT AVBL

NORTH DAKOTA


CITY           SKY/WX    TMP DP  RH WIND       PRES   REMARKS
WILLISTON      MOCLDY    40  33  76 SW9       29.80R
DICKINSON      MOCLDY    43  34  70 W14       29.81F
MINOT          CLOUDY    37  31  78 SW18G28   29.73F
BISMARCK       CLOUDY    36  32  85 S3        29.84F

SOUTHERN SASKATCHEWAN


CITY           SKY/WX    TMP DP  RH WIND       PRES   REMARKS
REGINA         MOCLDY    37  32  81 W20       29.73R
ESTEVAN        PTCLDY    37  32  81 W17G25    29.72
SWIFT CURRENT  MOCLDY    41  36  81 SW12      29.84R



USA.gov is the U.S. government's official web portal to all federal, state and local government web resources and services.